Observations
| Time | Sensor | AQI | SAQ | Temp °C | Hum % | Pres Pa | CO μg/m³ | H₂S μg/m³ | NO μg/m³ | NO₂ μg/m³ | O₃ μg/m³ | SO₂ μg/m³ | CO₂e PPM | VOC PPM | PM1 μg/m³ | PM2.5 μg/m³ | PM4 μg/m³ | PM10 μg/m³ | TPS µm |
|---|---|---|---|---|---|---|---|---|---|---|---|---|---|---|---|---|---|---|---|
| Wednesday 12 August 2026 | |||||||||||||||||||
| 07:26 | Trim Market St | 2 | 21.5 | 64 | 57,258 | 0.1 | 0 | 1.14 | 11.11 | 57.43 | 0 | 3.56 | 6.3 | 9.51 | |||||
| 07:25 | Trim Patrick St | 2 | 21.1 | 67 | 105,491 | 0.03 | 0 | 1.19 | 21.29 | 46.75 | 0 | 6.29 | 9.72 | 10.69 | |||||
| 07:24 | Trim Patrick St | 2 | 21.1 | 67 | 104,490 | 0.03 | 0 | 1.26 | 11.48 | 40.65 | 0 | 8 | 13.33 | 14.67 | |||||
| 07:23 | Trim Patrick St | 2 | 21.1 | 67 | 105,773 | 0.04 | 0 | 1.38 | 8.47 | 51.73 | 0 | 8 | 13.34 | 14.68 | |||||
| 07:22 | Trim Patrick St | 2 | 21.1 | 67 | 107,698 | 0.05 | 0 | 1.19 | 6.23 | 55.19 | 0 | 7.14 | 12.6 | 13.86 | |||||
| 07:21 | Trim Patrick St | 2 | 21 | 67 | 109,829 | 0.05 | 0 | 1.26 | 8.52 | 50.18 | 0 | 8 | 11.86 | 13.05 | |||||
| 07:20 | Trim Patrick St | 2 | 21 | 67 | 111,100 | 0.04 | 0 | 1.25 | 6.77 | 47.14 | 0 | 7.14 | 11.86 | 13.05 | |||||
| 07:20 | Trim Market St | 2 | 21.4 | 64 | 57,233 | 0.12 | 0 | 1.11 | 11.52 | 62.44 | 0 | 4.28 | 5.29 | 7.53 | |||||
| 07:19 | Trim Patrick St | 2 | 21 | 67 | 113,071 | 0.03 | 0 | 1.17 | 6.62 | 47.62 | 0 | 7.14 | 12.58 | 13.84 | |||||
| 07:19 | Trim Market St | 2 | 21.4 | 64 | 57,225 | 0.11 | 0 | 1.13 | 10.84 | 58.92 | 0 | 4.99 | 6.28 | 9.51 | |||||
| 07:18 | Trim Patrick St | 2 | 21 | 67 | 1,663 | 0.04 | 0 | 1.17 | 6.31 | 47.4 | 0 | 7.14 | 12.58 | 13.84 | |||||
| 07:17 | Trim Patrick St | 2 | 20.9 | 67 | 4,403 | 0.05 | 0 | 1.35 | 7.72 | 45.09 | 0 | 8 | 13.31 | 14.64 | |||||
| 07:16 | Trim Patrick St | 2 | 20.9 | 67 | 7,726 | 0.06 | 0 | 1.22 | 7.42 | 52.59 | 0 | 8 | 14.06 | 15.47 | |||||
| 07:15 | Trim Patrick St | 2 | 20.9 | 68 | 11,385 | 0.05 | 0 | 1.17 | 10.83 | 43.64 | 0 | 9.71 | 14.01 | 15.41 | |||||
| 07:14 | Trim Patrick St | 2 | 20.9 | 67 | 13,224 | 0.05 | 0 | 1.25 | 6.93 | 49.61 | 0 | 7.14 | 11.86 | 13.05 | |||||
| 07:13 | Trim Patrick St | 2 | 20.8 | 67 | 16,387 | 0.06 | 0 | 1.28 | 13.88 | 44.63 | 0 | 7.14 | 11.86 | 13.05 | |||||
| 07:12 | Trim Market St | 2 | 21.3 | 65 | 57,167 | 0.14 | 0 | 1.16 | 11.4 | 52.61 | 0 | 3.56 | 5.77 | 9.5 | |||||
| 07:12 | Trim Patrick St | 2 | 20.8 | 68 | 19,310 | 0.06 | 0 | 1.28 | 5.82 | 50.55 | 0 | 7.14 | 13.26 | 14.58 | |||||
| 07:11 | Trim Patrick St | 2 | 20.8 | 68 | 22,201 | 0.05 | 0 | 1.35 | 7.26 | 46.2 | 0 | 7.14 | 12.56 | 13.81 | |||||
| 07:10 | Trim Market St | 2 | 21.3 | 65 | 57,136 | 0.15 | 0 | 1.35 | 10.94 | 48.31 | 0 | 3.56 | 5.26 | 7.53 | |||||